Regional Weather Roundup
Issued by NWS

Home | Current Version | Previous Version | Graphics & Text | Print | Product List | Glossary Off
Versions: 1 2 3 4 5 6 7 8 9 10 11 12 13 14 15 16 17 18 19 20 21 22 23 24 25 26 27 28 29 30 31 32 33 34 35 36 37 38 39 40 41 42 43 44 45 46 47 48 49 50

000
ASUS43 KDTX 161210
RWRMI
MICHIGAN HOURLY REGIONAL WEATHER ROUNDUP
NATIONAL WEATHER SERVICE DETROIT/PONTIAC MI
700 AM EST SAT DEC 16 2017

NOTE: "FAIR" INDICATES FEW OR NO CLOUDS BELOW 12,000 FEET WITH NO
SIGNIFICANT WEATHER AND/OR OBSTRUCTION TO VISIBILITY.

MIZ047>049-052>055-059>063-066>070-074>076-081>083-161300-
SOUTHEAST LOWER MICHIGAN

CITY           SKY/WX    TMP DP  RH WIND       PRES   REMARKS
ALMA           FLURRIES  22  22  97 NE5       29.90S WCI  16
6HR MIN TEMP:  22; 6HR MAX TEMP:  23;

ANN ARBOR      FLURRIES  31  24  75 S10       29.89R WCI  22
BAD AXE        LGT SNOW  20  18  89 W3        29.92R
6HR MIN TEMP:  19; 6HR MAX TEMP:  21;

CARO           LGT SNOW  22  20  90 CALM      29.91R
DETROIT CITY   CLOUDY    31  25  78 W6        29.91R WCI  25
6HR MIN TEMP:  25; 6HR MAX TEMP:  31; 6HR PCP: TRACE;

DETROIT        FLURRIES  34  25  69 SW14      29.91R WCI  25
6HR MIN TEMP:  29; 6HR MAX TEMP:  35; 6HR PCP:  0.02;

FLINT          LGT SNOW  24  21  88 NE8       29.90R FOG     WCI  15
6HR MIN TEMP:  22; 6HR MAX TEMP:  24; 6HR PCP:  0.09;

GROSSE ILE     CLOUDY    33  24  69 SW8       29.91R WCI  27
6HR MIN TEMP:  29; 6HR MAX TEMP:  33;

HILLSDALE      CLOUDY    32  23  69 S7        29.86S WCI  26
HOWELL         LGT SNOW  30  28  93 NW3       29.87R
6HR MIN TEMP:  24; 6HR MAX TEMP:  31;


CITY           SKY/WX    TMP DP  RH WIND       PRES   REMARKS
JACKSON        CLOUDY    33  24  69 S10       29.87R WCI  25
6HR MIN TEMP:  29; 6HR MAX TEMP:  34; 6HR PCP: TRACE;

LAMBERTVILLE   CLOUDY    34  23  64 SW8       29.92R WCI  27
6HR MIN TEMP:  30; 6HR MAX TEMP:  34;

LANSING        LGT SNOW  25  24  96 NE7       29.88R FOG     WCI  17
6HR MIN TEMP:  24; 6HR MAX TEMP:  25; 6HR PCP:  0.13;

LAPEER         FLURRIES  22  21  96 CALM      29.91R
6HR MIN TEMP:  22; 6HR MAX TEMP:  24; 6HR PCP:  0.02;

MASON          CLOUDY    32  25  74 SW6       29.86S WCI  27
6HR MIN TEMP:  29; 6HR MAX TEMP:  32;

MONROE         CLOUDY    33  23  66 SW10      29.91S WCI  25
6HR MIN TEMP:  29; 6HR MAX TEMP:  33;

MT. CLEMENS    CLOUDY    25  25 100 N6        29.90R WCI  18
6HR MIN TEMP:  24; 6HR MAX TEMP:  25; 6HR PCP:  0.04;

PONTIAC        LGT SNOW  24  24 100 NE5       29.87R FOG     WCI  18
6HR MIN TEMP:  23; 6HR MAX TEMP:  25; 6HR PCP: TRACE;

PORT HOPE        N/A     22  16  78 W3        29.90R
6HR MIN TEMP:  19; 6HR MAX TEMP:  23;

PORT HURON     LGT SNOW  23  21  93 CALM      29.93R
TRI CITIES     CLOUDY    21  20  96 CALM      29.92S
6HR MIN TEMP:  21; 6HR MAX TEMP:  22; 6HR PCP:  0.03;

MIDLAND        FLURRIES  22  20  91 CALM      29.92R
6HR MIN TEMP:  20; 6HR MAX TEMP:  22;

TROY           LGT SNOW  31  28  91 CALM      29.91R
SAGINAW HB     FLURRIES  21  21 100 CALM      29.91S
$$
MIZ043>046-050>051-056>058-064>065-071>073-077>080-161300-
SOUTHWEST LOWER MICHIGAN

CITY           SKY/WX    TMP DP  RH WIND       PRES   REMARKS
BATTLE CREEK   CLOUDY    32  24  72 S7        29.87R WCI  26
6HR MIN TEMP:  29; 6HR MAX TEMP:  33; 6HR PCP: TRACE;

BENTON HARBOR  CLOUDY    38  25  59 SW12      29.87R WCI  30
6HR MIN TEMP:  35; 6HR MAX TEMP:  38;

BIG RAPIDS     FLURRIES  19  18  93 CALM      29.86S
6HR MIN TEMP:  17; 6HR MAX TEMP:  19; 6HR PCP:  0.01;

COLDWATER      CLOUDY    33  24  68 SW7       29.88R WCI  27
6HR MIN TEMP:  30; 6HR MAX TEMP:  33;

HOLLAND        CLOUDY    37  29  72 W10       29.85R WCI  30
6HR MIN TEMP:  34; 6HR MAX TEMP:  38; 6HR PCP:  0.05;

GRAND RAPIDS   FLURRIES  26  24  92 NE7       29.86R WCI  18
6HR MIN TEMP:  25; 6HR MAX TEMP:  26; 6HR PCP:  0.25;

IONIA          FLURRIES  25  23  93 NE7       29.87S WCI  17
6HR MIN TEMP:  24; 6HR MAX TEMP:  25; 6HR PCP:  0.07;

KALAMAZOO      CLOUDY    34  24  67 SW10      29.86R WCI  26
6HR MIN TEMP:  29; 6HR MAX TEMP:  34; 6HR PCP: TRACE;

LUDINGTON      FLURRIES  22  19  88 E7        29.88R WCI  13
6HR MIN TEMP:  21; 6HR MAX TEMP:  25;

MARSHALL       CLOUDY    32  23  70 CALM      29.87R
6HR MIN TEMP:  28; 6HR MAX TEMP:  32;

MOUNT PLEASANT LGT SNOW  21  19  91 CALM      29.89S
6HR MIN TEMP:  20; 6HR MAX TEMP:  23; 6HR PCP:  0.01;

MUSKEGON       FLURRIES  26  22  84 E13       29.87R WCI  15
6HR MIN TEMP:  26; 6HR MAX TEMP:  32; 6HR PCP:  0.20;

SOUTH HAVEN    CLOUDY    38  29  70 SW13      29.85S WCI  30
$$
MIZ016>042-161300-
NORTHERN LOWER MICHIGAN

CITY           SKY/WX    TMP DP  RH WIND       PRES   REMARKS
ALPENA         CLOUDY    15  13  91 N6        29.93R WCI   6
6HR MIN TEMP:  15; 6HR MAX TEMP:  20; 6HR PCP: TRACE;

BEAVER ISLAND  FLURRIES  16  12  84 NE5       29.93R WCI   9
6HR MIN TEMP:  16; 6HR MAX TEMP:  20;

BELLAIRE       CLOUDY    19  16  89 NE3       29.91R
6HR MIN TEMP:  17; 6HR MAX TEMP:  24;

CADILLAC       CLOUDY    16  13  87 CALM      29.83S
CHARLEVOIX     LGT SNOW  18  13  82 E13       29.94R WCI   4
6HR MIN TEMP:  18; 6HR MAX TEMP:  23;

FRANKFORT      FLURRIES  22  17  79 CALM      29.89R
GAYLORD        CLOUDY    14  10  84 NE6       29.86R WCI   5
6HR MIN TEMP:  14; 6HR MAX TEMP:  19; 6HR PCP: TRACE;

GRAYLING       CLOUDY    15  12  87 CALM      29.88R
6HR MIN TEMP:  15; 6HR MAX TEMP:  18;

HARBOR SPRINGS FLURRIES  12   8  85 NE10      29.93R WCI  -1
HOUGHTON LAKE  FLURRIES  18  14  84 CALM      29.87R
6HR MIN TEMP:  17; 6HR MAX TEMP:  18; 6HR PCP: TRACE;

MANISTEE       FLURRIES  18  16  92 E5        29.89R WCI  11
OSCODA         CLOUDY    14  10  83 CALM      29.92R
6HR MIN TEMP:  11; 6HR MAX TEMP:  15;

PELLSTON       CLOUDY     8   6  92 E3        29.95R
6HR MIN TEMP:   8; 6HR MAX TEMP:  20; 6HR PCP: TRACE;

ROGERS CITY    FLURRIES  16  11  82 N10       29.95R WCI   3
TRAVERSE CITY  CLOUDY    19  14  81 CALM      29.89R
6HR MIN TEMP:  19; 6HR MAX TEMP:  21;

$$
MIZ007>008-015-161300-
EASTERN UPPER MICHIGAN

CITY           SKY/WX    TMP DP  RH WIND       PRES   REMARKS
KINROSS        CLOUDY     2  -3  80 NE7       29.96R WCI -11
6HR MIN TEMP:   2; 6HR MAX TEMP:  12;

MACKINAC ISLAN MOCLDY     9   3  77 NE14      29.95R WCI  -7
6HR MIN TEMP:   9; 6HR MAX TEMP:  18;

NEWBERRY       CLOUDY    10   9  95 NE6       29.93R WCI   0
6HR MIN TEMP:   8; 6HR MAX TEMP:  13;

S. S. MARIE    CLOUDY     3  -5  69 NE6       29.97R WCI  -8
6HR MIN TEMP:   3; 6HR MAX TEMP:  10;

MUNISING         N/A     12   9  87 SE8       29.93R WCI   0
6HR MIN TEMP:  11; 6HR MAX TEMP:  15; 6HR PCP:  0.05;

$$
MIZ004>006-011>014-085-161300-
CENTRAL UPPER MICHIGAN

CITY           SKY/WX    TMP DP  RH WIND       PRES   REMARKS
MANISTIQUE     CLOUDY     7   2  82 NE6       29.93R WCI  -3
6HR MIN TEMP:   1; 6HR MAX TEMP:   9;

ESCANABA       CLOUDY    11   5  77 N3        29.92R
6HR MIN TEMP:  11; 6HR MAX TEMP:  12;

MENOMINEE      CLOUDY    11   5  77 N5        29.92R WCI   3
6HR MIN TEMP:  11; 6HR MAX TEMP:  13;

SAWYER-GWINN   CLEAR     -4  -8  84 CALM      29.87R
$$
MIZ001>003-009>011-084-161300-
WESTERN UPPER MICHIGAN

CITY           SKY/WX    TMP DP  RH WIND       PRES   REMARKS
IRON MOUNTAIN  CLOUDY     5   1  83 CALM      29.86R
6HR MIN TEMP:   5; 6HR MAX TEMP:  11;

HOUGHTON       CLOUDY    14   7  73 NE9       29.88R WCI   2
6HR MIN TEMP:   3; 6HR MAX TEMP:  14; 6HR PCP: TRACE;

COPPER HARBOR    N/A     19  11  70 E9G18     29.93R WCI   8
6HR MIN TEMP:  16; 6HR MAX TEMP:  20; 6HR PCP:  0.01;

IRONWOOD       CLOUDY     8   6  92 E6        29.85R WCI  -2
6HR MIN TEMP:   6; 6HR MAX TEMP:  12;

$$

ABBREVIATIONS USED IN REMARKS
   TC - TEMPERATURE IN CELSIUS
  WCI - WIND CHILL INDEX
   HX - HEAT INDEX
  VSB - VISIBILITY





USA.gov is the U.S. government's official web portal to all federal, state and local government web resources and services.